Weather Service Report


907 
ASUS43 KIND 250109
RWRIN 

WEATHER ROUNDUP FOR INDIANA
NATIONAL WEATHER SERVICE INDIANAPOLIS IN
800 PM EST FRI NOV 24 2017

NOTE: "FAIR" INDICATES FEW OR NO CLOUDS BELOW 12,000 FEET WITH NO
SIGNIFICANT WEATHER AND/OR OBSTRUCTIONS TO VISIBILITY.

* - STATION DOES NOT REPORT WEATHER SUCH AS PRECIPITATION OR FOG.

+ - STATION NOT QUALITY CONTROLLED BY THE NATIONAL WEATHER SERVICE.
    USE DATA WITH CAUTION...ESPECIALLY DEWPOINT AND RELATIVE
    HUMIDITY OBSERVATIONS.

INZ001>003-010>013-019-020-250200-
NORTHWEST INDIANA
  
CITY           SKY/WX    TMP DP  RH WIND       PRES   REMARKS
GARY /AIRPORT/ PTCLDY    55  36  47 S14G25    29.53R                  
KNOX *+        CLEAR     50  36  57 S15G21    29.56R                  
LA PORTE +     CLEAR     50  36  57 S12G22    29.56R                  
MICHIGAN CITY+ CLEAR     52  36  54 S17G26    29.54R                  
MONTICELLO +   CLEAR     51  32  48 S16       29.58S                  
RENSSELAER +   CLOUDY    52  28  40 S15G24    29.58R                  
VALPARAISO     CLEAR     52  37  56 MISG      29.56R                  

$$

LMZ046-743>745-250200-
SOUTHERN LAKE MICHIGAN
  
STATION/POSITION TIME  TEMP    WIND        PRES    WAVE
                       AIR SEA DIR/SP/G            HT
                 (UTC) (F)     (DEG/KT/KT) (MB)    (FT)
BURNS HARBOR     0040   53     190/ 22/ 28 1000.0R
MICHIGAN CITY    0040   53     170/ 21/ 24   N/A

$$

INZ004-005-014>016-021>024-250200-
NORTH CENTRAL INDIANA
  
CITY           SKY/WX    TMP DP  RH WIND       PRES   REMARKS
ELKHART        CLEAR     52  34  50 SW10      29.56R                  
GOSHEN         CLEAR     51  32  48 S17G28    29.55F                  
LOGANSPORT +   CLEAR     46  34  61 S18       29.61F                  
PERU/GRISSOM   CLEAR     51  34  52 S17G24    29.60S                  
ROCHESTER +    CLEAR     54  34  47 S14G23    29.59S                  
SOUTH BEND     CLEAR     52  36  54 S18G25    29.56R                  
WARSAW +       CLEAR     50  34  53 S9G17     29.57F                  

$$

INZ006>009-017-018-025>027-250200-
NORTHEAST INDIANA
  
CITY           SKY/WX    TMP DP  RH WIND       PRES   REMARKS
AUBURN +       PTCLDY    50  32  50 S12G21    29.60F                  
FORT WAYNE     PTCLDY    50  33  52 S17       29.62F                  
HUNTINGTON +   CLEAR     49  31  48 S14G21    29.62F                  

$$

INZ028-029-035-036-043>045-051>053-250200-
WEST CENTRAL INDIANA
  
CITY           SKY/WX    TMP DP  RH WIND       PRES   REMARKS
CRAWFORDSVL +  CLEAR     49  33  53 S18       29.63S                  
GREENCASTLE +  CLEAR     52  30  43 S9G16     29.69R                  
LAFAYETTE      CLEAR     51  34  52 S13G18    29.61F                  
TERRE HAUTE    CLEAR     52  32  46 S17G23    29.68S                  

$$

INZ030>032-037>040-046>048-054>057-064-065-250200-
CENTRAL INDIANA
  
CITY           SKY/WX    TMP DP  RH WIND       PRES   REMARKS
CP ATTERBURY + CLEAR     50  28  43 S12       29.73F                  
COLUMBUS       CLEAR     48  23  37 S15       29.74F                  
FRANKFORT +    CLEAR     51  35  54 S16G22    29.64S                  
GREENWOOD *+   CLEAR    N/A N/A N/A S9        29.71F                  
INDIANAPOLIS   PTCLDY    51  30  44 S14       29.69F                  
-EAGLE CREEK   CLEAR     52  30  43 S10G18    29.67F                  
KOKOMO +       CLEAR     50  34  54 S17G24    29.62F                  
MARION +       CLEAR     47  33  56 S20G25    29.65F HAZE             
MT COMFORT *+  CLEAR     48  36  61 S15G21    29.69F                  
SHELBYVILLE    CLEAR     51  28  41 S16       29.71F                  
ZIONSVILLE +   CLEAR     49  32  51 S17G25    29.66F                  

$$

INZ033-034-041-042-049-050-058-059-250200-
EAST CENTRAL INDIANA
  
CITY           SKY/WX    TMP DP  RH WIND       PRES   REMARKS
MUNCIE         CLEAR     51  29  42 S18G25    29.67F                  
RICHMOND +     PTCLDY    43  32  65 S15       29.74F                  

$$

INZ060-061-067>069-081>083-085>088-250200-
SOUTHWEST INDIANA
  
CITY           SKY/WX    TMP DP  RH WIND       PRES   REMARKS
EVANSVILLE     CLEAR     54  32  43 S9        29.77F                  
HUNTINGBURG +  CLEAR     51  30  44 S10       29.78F                  
WASHINGTON +   CLEAR     49  31  50 S14       29.72F                  

$$

INZ062-063-066-070>080-084-089>092-250200-
SOUTH CENTRAL AND SOUTHEAST INDIANA
  
CITY           SKY/WX    TMP DP  RH WIND       PRES   REMARKS
BEDFORD +      CLEAR     50  27  40 S10G17    29.74                   
BLOOMINGTON    CLEAR     51  29  42 S12       29.72F                  
MADISON *+     CLEAR     48  27  43 S5        29.81F                  
NORTH VERNON + PTCLDY    48  27  43 S10       29.77F                  
SEYMOUR +      CLEAR     52  28  40 S12       29.76F                  

$$

  

Return to Home page


Western Regional Climate Center, wrcc@dri.edu